sat.trackr.live / text

‹ back to catalog

KINEIS-1D

NORAD 60082 · 2024-114D

PAYLOAD ACTIVE UNKNOWN

§ Identity

Operator
Country
FR
Launch date
2024-06-20
Launch site
RLLB
Launch vehicle
Mass (kg)
RCS (m²)

External: N2YO · Heavens-Above · Gunter

§ Orbital elements

Epoch: 2026-05-25T04:50:19.225824Z

Period
97.55 min
Inclination
97.9887°
Eccentricity
0.0000197
Mean motion
14.76221926 rev/d
Perigee alt
641.1 km
Apogee alt
641.4 km
Semi-major
7,019.4 km
B*
8.9262e-5
RAAN
165.5877°
Arg perigee
123.9578°
Mean anomaly
236.1651°
Rev number
10,373

§ Raw data

KINEIS-1D1 60082U 24114D   26145.20161141  .00000567  00000+0  89262-4 0  99902 60082  97.9887 165.5877 0000197 123.9578 236.1651 14.76221926103735

JSON: /api/v1/satellites/60082 · /tle

For live sub-satellite position, see the globe view (requires WebGL).

§ Visibility from observer

Set your observer location to see the next 7 days of passes ≥ 10°. The values pass through the URL so the page stays shareable.

No JS? Fill the form by hand. The geolocation button needs JavaScript.

§ Radio — SatNOGS DB

ModeDescriptionDownlinkUplink
BPSK S-band telemetry 2.265 GHz
BPSK S-band telemetry 2.264 GHz

2 transmitters · refreshed weekly from db.satnogs.org